Vorticity
7 7 7 7 6 6 6 6 6 6 7 7 7 7 7 7 7 8 9 9 10 10 11 12 12 12 13 13 12 11 10 9 9 8 7 7 6 6 5 5 4 4 4 3 3 3 3 3 3 3 3 2 2 2 2 2 2 2 2 2 2 3 3 3 4 5 6 6 6
7 7 7 7 6 6 6 6 6 6 7 7 7 7 7 7 7 8 8 9 9 10 10 11 12 12 13 13 13 12 11 10 9 8 8 7 6 6 5 5 5 4 4 3 3 3 3 3 3 2 2 2 2 2 2 2 2 2 2 2 2 3 3 4 5 5 6 7 7
7 7 7 6 6 6 6 6 6 6 7 7 7 7 6 7 7 7 8 8 8 9 9 10 11 12 13 13 13 13 12 11 11 10 9 8 7 7 6 6 5 5 4 4 4 3 3 3 3 3 2 2 3 3 3 3 3 3 3 3 4 4 5 5 6 7 7 8 8
6 6 7 6 6 6 6 6 6 7 7 7 6 6 6 6 6 7 7 7 8 8 9 9 10 11 12 13 13 13 13 13 12 11 10 9 9 8 8 7 6 6 5 5 5 4 4 4 4 4 4 4 4 4 5 5 5 5 5 5 6 7 8 8 9 9 9 10 10
6 6 6 6 6 6 6 6 6 7 7 7 6 6 6 6 6 6 6 7 7 8 8 9 10 10 11 12 13 13 14 14 13 13 12 12 11 10 10 9 9 8 8 8 7 7 7 7 7 7 7 7 7 7 8 8 8 8 9 9 10 10 11 11 11 11 11 11 12
5 6 6 6 6 6 6 6 6 6 6 6 6 6 6 6 6 6 7 7 7 7 8 8 9 10 10 11 12 13 14 14 14 14 14 14 13 13 13 12 12 12 12 12 12 11 11 11 11 11 11 11 11 11 11 11 11 12 12 13 13 13 13 13 13 12 12 12 12
5 5 6 6 6 5 5 5 6 6 6 6 6 6 6 6 6 6 7 7 7 7 7 7 8 8 9 10 11 11 12 13 14 14 15 15 15 15 15 15 15 15 15 15 15 15 15 14 14 14 14 13 13 14 14 14 14 14 14 14 14 14 13 13 13 12 12 12 12
4 5 5 5 5 5 5 5 5 6 6 6 6 6 6 6 6 6 7 7 7 7 7 7 7 7 8 8 9 10 10 11 12 12 13 14 14 14 15 15 15 15 15 16 15 15 15 15 14 14 14 14 14 14 14 14 14 14 14 14 14 13 13 12 12 12 11 11 11
4 4 4 4 4 4 4 4 5 5 5 6 6 6 6 6 6 7 7 7 7 7 6 7 7 7 7 7 8 8 9 9 10 10 11 11 12 12 12 13 13 13 13 13 13 13 13 13 13 13 13 13 13 14 14 14 14 14 13 13 12 12 12 11 11 11 10 10 10
3 3 3 3 3 3 3 4 4 5 5 6 6 6 6 7 7 7 7 7 6 6 7 7 6 7 7 7 7 8 8 8 8 9 9 10 10 10 10 11 11 11 11 11 11 11 11 11 12 12 12 13 13 13 13 13 13 12 12 11 11 11 10 10 10 10 10 9 9
3 3 2 2 2 3 3 3 4 5 6 6 7 7 7 7 7 7 7 7 7 7 7 7 7 7 7 7 8 8 8 8 8 8 9 9 9 9 10 10 10 10 10 10 11 11 11 12 12 12 13 13 13 12 12 12 11 11 10 10 10 9 9 9 9 9 9 9 9
3 3 2 2 3 3 3 4 5 6 7 7 7 7 7 7 7 7 7 7 8 7 7 7 8 8 8 8 8 8 8 9 9 9 9 9 10 10 10 10 10 11 11 11 11 12 12 12 12 12 12 12 12 11 11 10 10 10 9 9 9 9 9 9 9 9 9 9 10
3 3 3 4 4 4 4 5 6 6 7 8 8 8 8 8 8 8 8 8 8 8 8 8 9 9 8 8 9 9 9 9 9 10 10 10 10 10 10 11 11 11 11 12 12 12 12 12 12 12 11 11 11 10 10 9 9 9 9 9 9 9 9 9 9 9 10 10 10
4 5 5 5 5 5 5 6 6 7 7 8 8 8 8 8 9 9 9 9 9 9 9 9 9 9 9 9 9 9 10 10 10 10 10 10 10 10 10 10 11 11 11 11 11 11 11 11 11 11 10 10 10 10 9 9 9 9 9 9 9 9 9 10 10 10 10 10 11
6 6 6 6 6 6 6 6 7 7 8 8 8 8 9 9 10 10 10 10 10 10 10 10 10 10 10 10 10 10 10 10 10 10 10 9 10 10 10 10 10 10 10 10 10 11 11 10 10 10 10 10 9 9 9 9 9 9 9 9 10 10 10 10 11 11 11 11 11
6 6 6 6 6 6 6 7 7 8 8 8 9 9 9 10 10 10 10 10 10 10 10 10 10 10 10 10 10 10 10 10 10 9 9 9 9 9 9 9 10 10 10 10 10 11 11 10 10 10 10 9 9 9 9 9 9 9 10 10 11 11 11 11 11 11 11 11 11
6 6 6 6 6 7 7 8 8 8 9 9 9 10 10 10 10 10 10 10 9 9 9 9 9 10 10 10 10 10 10 10 9 9 9 9 9 9 10 10 10 10 10 10 10 10 10 10 10 10 9 9 9 9 9 10 10 11 11 12 12 12 12 12 11 11 10 10 10
6 6 6 7 7 8 8 9 9 9 9 9 10 10 10 10 10 10 9 9 9 9 9 9 9 9 9 9 10 10 10 10 10 10 10 10 10 10 10 10 10 10 10 10 10 10 9 9 9 9 9 10 10 10 10 11 11 12 12 12 12 12 11 10 10 9 9 9 9
6 7 7 8 8 9 9 9 10 10 10 10 10 10 10 10 9 9 9 9 8 8 9 9 9 9 9 10 10 10 10 10 10 9 9 9 9 9 9 9 9 9 9 9 9 9 9 10 10 10 10 10 10 10 11 11 11 11 11 11 10 9 9 8 8 7 7 7 7
7 8 8 9 9 10 10 10 10 10 10 10 10 10 10 10 9 9 9 9 9 9 9 9 9 9 10 10 10 10 9 9 9 9 8 8 8 8 9 9 9 9 9 9 9 9 10 10 10 10 10 9 9 9 9 9 9 9 9 8 8 7 7 6 6 6 6 6 6
8 9 9 10 10 10 10 11 11 11 11 11 11 10 10 10 10 9 9 9 9 8 9 9 9 9 9 9 9 9 8 8 8 8 8 8 8 9 9 9 8 8 9 9 9 9 9 9 9 9 8 8 8 7 7 7 7 7 7 6 6 6 6 6 6 6 6 7 7
9 10 10 11 11 11 11 11 11 11 11 11 11 11 10 10 10 9 9 9 8 8 8 8 8 8 8 8 8 8 8 7 8 8 8 8 8 8 8 8 8 8 8 8 8 8 8 8 8 7 6 6 6 6 6 6 6 6 6 6 6 6 6 6 7 7 8 9 9
11 11 11 12 12 12 12 12 12 12 12 11 11 11 10 10 9 9 9 8 8 8 8 8 8 8 8 7 7 7 7 7 7 8 8 7 7 7 7 7 7 7 7 7 8 8 7 7 6 6 6 6 6 6 6 6 6 6 6 6 7 7 8 9 9 10 11 11 12
12 12 12 12 12 12 12 12 12 12 12 11 11 10 10 9 9 8 8 8 7 7 7 8 7 7 7 7 6 6 6 6 7 7 7 7 7 7 6 6 7 7 7 7 7 7 6 6 5 5 6 6 6 6 7 7 7 8 8 9 9 10 11 11 12 12 12 12 12
12 12 12 12 12 12 12 12 12 11 11 10 10 9 9 8 8 8 7 7 7 7 7 7 7 7 6 6 6 6 6 7 7 7 7 7 7 7 6 6 7 7 7 7 7 6 6 6 6 6 6 7 8 8 8 9 10 10 11 11 12 12 12 12 12 11 11 10 9
11 11 11 11 11 11 11 11 10 10 9 9 9 8 8 8 7 7 7 7 7 7 7 7 7 7 7 7 7 7 8 8 7 7 7 6 6 6 6 6 7 7 7 7 6 6 6 6 7 8 9 9 10 10 11 11 12 12 12 12 12 11 11 10 9 8 8 6 6
10 10 10 10 10 10 10 9 9 9 8 8 8 8 7 7 6 6 7 7 6 7 7 7 7 7 7 7 8 8 8 7 7 7 6 6 6 6 6 6 7 7 7 7 7 7 8 9 10 10 11 11 11 11 11 11 11 11 10 9 9 8 7 6 6 5 4 4 3
9 9 9 9 9 9 9 8 8 8 8 8 8 7 7 6 6 6 6 7 7 7 8 8 8 8 7 8 8 7 6 6 6 6 6 6 6 6 7 8 8 8 9 9 9 10 11 11 11 12 11 11 11 10 9 9 8 7 7 6 5 5 4 4 3 3 3 3 3
9 9 8 8 8 8 8 9 9 9 8 8 7 7 6 6 6 7 7 7 8 8 8 8 7 7 7 7 6 6 5 5 5 6 6 7 8 8 9 10 10 10 10 11 11 11 11 11 11 10 9 9 8 7 6 6 5 4 4 4 3 3 3 3 3 3 4 4 5
8 8 8 8 8 9 9 9 8 8 8 7 7 7 7 7 8 8 8 9 9 8 7 5 5 6 6 5 5 5 6 6 7 8 8 9 10 11 11 11 11 11 11 11 10 10 9 9 8 7 6 6 5 4 4 3 3 3 3 3 4 4 4 5 5 6 7 8 9
9 9 9 9 9 9 9 8 8 7 7 7 8 8 8 8 9 9 8 8 6 5 5 4 5 5 5 5 6 7 8 9 9 10 11 11 11 11 11 10 10 10 9 9 8 7 7 6 5 5 4 4 3 3 3 3 4 4 5 5 6 6 7 8 8 9 10 11 11
9 9 9 9 9 9 8 8 8 8 8 8 9 9 9 9 8 7 6 5 4 4 4 5 5 6 7 8 9 10 10 11 11 11 11 11 10 10 9 9 8 8 7 7 6 5 5 4 4 3 3 3 4 4 4 5 6 6 7 8 9 9 10 11 11 12 12 13 12
10 9 9 9 9 9 9 9 9 9 9 8 8 8 7 6 5 4 4 4 4 4 5 6 7 8 9 10 11 11 11 11 11 10 10 9 8 8 7 7 6 6 5 5 4 4 4 3 3 4 4 4 5 6 7 8 9 10 10 11 12 13 13 14 14 15 15 15 15
10 10 10 10 9 9 9 9 8 8 7 7 7 6 5 4 4 4 4 4 5 7 8 9 10 11 11 11 11 11 10 10 9 8 8 7 7 6 6 6 5 5 4 4 4 4 4 4 4 5 6 7 8 9 10 11 13 14 15 16 17 18 19 19 20 20 20 20 20
9 9 9 9 8 8 7 7 6 6 6 6 5 5 5 4 5 5 6 7 8 9 10 11 11 11 11 10 10 9 8 8 7 7 7 6 6 5 5 4 4 4 3 4 4 4 5 6 7 8 10 11 13 14 16 17 19 20 21 22 23 23 24 24 24 24 24 24 24
8 7 7 6 6 5 5 5 5 5 5 5 5 5 6 6 7 8 9 10 10 11 11 11 10 9 9 8 8 7 7 6 6 6 6 5 5 4 4 3 3 3 4 5 6 7 8 10 12 14 16 18 20 21 23 25 26 26 26 26 26 25 25 24 23 23 22 22 22
6 5 5 4 4 4 5 5 5 6 6 6 7 7 8 9 9 10 11 11 10 10 10 9 8 8 7 7 7 7 6 6 5 5 5 4 4 4 3 4 4 5 7 8 10 12 14 16 19 21 24 25 27 27 28 28 27 26 25 24 22 21 20 20 19 19 18 18 18
6 5 5 5 5 5 6 6 6 7 7 8 9 9 10 10 11 11 11 10 9 9 8 8 7 7 7 6 6 6 5 5 5 4 4 4 4 4 5 6 7 9 11 14 17 19 22 25 27 28 29 29 28 27 25 24 22 20 19 18 17 16 16 16 16 16 16 17 17
6 6 6 6 6 7 7 7 8 9 9 10 10 11 11 11 10 10 9 8 8 7 7 7 6 6 6 5 5 4 4 4 4 4 4 5 6 8 9 11 13 16 19 22 25 27 29 30 29 28 26 24 22 20 18 16 15 14 13 13 12 12 12 12 13 13 14 15 16
7 7 7 7 8 8 8 9 9 10 11 11 11 11 10 10 9 9 8 7 7 6 6 6 6 5 5 4 4 4 4 4 5 6 7 9 11 13 15 18 21 23 26 28 29 29 28 26 23 21 18 16 14 13 12 11 10 10 10 9 9 9 9 9 10 10 11 12 13
7 7 8 8 9 9 10 10 11 11 11 11 10 10 9 9 8 7 7 6 6 6 5 5 5 4 4 4 4 5 5 6 8 10 12 15 17 20 23 25 27 28 29 28 26 24 21 17 15 12 10 9 8 7 7 6 6 6 7 7 6 6 6 6 6 7 7 8 9
Height
5722 5723 5725 5727 5728 5730 5731 5733 5734 5736 5737 5738 5739 5741 5742 5742 5743 5744 5745 5746 5746 5747 5747 5748 5749 5750 5750 5751 5752 5753 5754 5755 5756 5756 5757 5758 5758 5759 5759 5760 5760 5760 5760 5761 5761 5761 5761 5761 5761 5761 5761 5761 5761 5760 5760 5759 5759 5758 5758 5757 5757 5757 5756 5756 5755 5754 5754 5753 5752
5721 5722 5724 5725 5727 5728 5730 5732 5733 5734 5736 5737 5738 5739 5740 5741 5742 5743 5744 5744 5745 5745 5746 5747 5747 5748 5749 5750 5750 5751 5752 5753 5754 5754 5755 5756 5756 5757 5757 5757 5758 5758 5758 5758 5758 5759 5759 5759 5759 5759 5758 5758 5758 5758 5757 5757 5756 5756 5755 5755 5754 5754 5753 5753 5752 5752 5751 5750 5749
5719 5721 5722 5724 5726 5727 5729 5730 5732 5733 5735 5736 5737 5738 5739 5740 5741 5742 5742 5743 5743 5744 5745 5745 5746 5747 5747 5748 5749 5750 5751 5751 5752 5753 5753 5754 5754 5755 5755 5755 5756 5756 5756 5756 5756 5756 5756 5756 5756 5756 5756 5756 5755 5755 5754 5754 5753 5753 5752 5752 5752 5751 5751 5750 5749 5749 5748 5747 5746
5718 5720 5721 5723 5725 5726 5728 5729 5731 5732 5733 5735 5736 5737 5737 5738 5739 5740 5741 5741 5742 5742 5743 5744 5744 5745 5746 5747 5747 5748 5749 5749 5750 5751 5751 5752 5752 5752 5753 5753 5753 5753 5753 5753 5754 5754 5754 5754 5754 5753 5753 5753 5752 5752 5752 5751 5750 5750 5750 5749 5749 5748 5748 5747 5747 5746 5745 5744 5743
5717 5719 5721 5722 5724 5725 5727 5728 5730 5731 5732 5733 5734 5735 5736 5737 5738 5739 5739 5740 5741 5741 5742 5742 5743 5744 5744 5745 5746 5747 5747 5747 5748 5749 5749 5749 5750 5750 5750 5751 5751 5751 5751 5751 5751 5751 5751 5751 5751 5751 5750 5750 5750 5749 5748 5748 5747 5747 5747 5747 5746 5746 5745 5744 5744 5743 5742 5741 5740
5716 5718 5720 5722 5723 5725 5726 5727 5729 5730 5731 5732 5733 5734 5735 5736 5737 5737 5738 5738 5739 5740 5740 5741 5742 5742 5743 5743 5744 5745 5745 5746 5746 5747 5747 5747 5747 5747 5748 5748 5748 5748 5748 5748 5748 5748 5748 5748 5748 5748 5747 5747 5747 5746 5746 5745 5745 5745 5744 5744 5743 5743 5742 5742 5741 5740 5739 5738 5737
5716 5717 5719 5721 5722 5724 5725 5726 5727 5728 5730 5731 5732 5733 5733 5734 5735 5736 5737 5737 5738 5738 5739 5739 5740 5741 5741 5742 5742 5742 5743 5743 5744 5744 5744 5745 5745 5745 5745 5745 5746 5746 5746 5746 5746 5746 5745 5745 5745 5745 5744 5744 5744 5743 5743 5743 5742 5742 5742 5742 5741 5740 5740 5739 5738 5737 5737 5736 5735
5715 5717 5718 5720 5721 5722 5724 5725 5726 5727 5728 5729 5730 5731 5732 5733 5734 5734 5735 5736 5736 5737 5737 5738 5738 5739 5739 5740 5740 5741 5741 5741 5742 5742 5742 5742 5742 5742 5743 5743 5743 5743 5743 5743 5743 5743 5743 5742 5742 5742 5742 5742 5742 5741 5741 5741 5740 5740 5740 5739 5738 5738 5737 5736 5735 5735 5734 5733 5732
5715 5716 5717 5719 5720 5721 5722 5723 5724 5726 5727 5728 5729 5730 5731 5732 5732 5733 5734 5734 5735 5736 5736 5737 5737 5737 5738 5738 5738 5739 5739 5739 5739 5740 5740 5740 5740 5740 5740 5741 5741 5741 5741 5741 5740 5740 5740 5740 5740 5740 5739 5739 5739 5739 5739 5738 5738 5737 5737 5737 5736 5735 5734 5734 5733 5732 5731 5730 5729
5714 5715 5717 5718 5719 5720 5721 5722 5723 5724 5726 5727 5728 5729 5730 5731 5731 5732 5733 5733 5734 5734 5735 5735 5735 5736 5736 5737 5737 5737 5737 5737 5737 5737 5738 5738 5738 5738 5738 5738 5738 5738 5738 5738 5738 5738 5738 5738 5738 5737 5737 5737 5737 5737 5737 5736 5736 5735 5734 5734 5733 5732 5732 5731 5730 5729 5728 5727 5727
5713 5714 5715 5717 5717 5718 5720 5721 5722 5723 5725 5726 5727 5727 5728 5729 5730 5731 5732 5732 5732 5733 5733 5734 5734 5734 5735 5735 5735 5735 5735 5736 5736 5736 5736 5736 5736 5736 5737 5737 5737 5737 5736 5736 5736 5736 5736 5736 5736 5736 5736 5736 5735 5735 5734 5734 5733 5732 5732 5732 5731 5730 5730 5729 5728 5727 5726 5725 5724
5712 5713 5714 5715 5716 5717 5719 5720 5722 5722 5724 5725 5726 5727 5727 5728 5729 5729 5730 5731 5731 5732 5732 5732 5732 5733 5733 5733 5733 5733 5734 5734 5734 5734 5734 5735 5735 5735 5735 5735 5735 5735 5735 5735 5735 5735 5735 5735 5734 5734 5734 5733 5733 5732 5732 5731 5731 5730 5730 5729 5728 5728 5727 5726 5725 5724 5723 5722 5722
5710 5711 5713 5714 5716 5717 5718 5719 5721 5722 5722 5723 5724 5725 5726 5727 5727 5728 5729 5729 5730 5730 5731 5731 5731 5731 5732 5732 5732 5732 5732 5732 5732 5733 5733 5733 5733 5733 5733 5733 5733 5733 5733 5733 5733 5733 5733 5732 5732 5732 5732 5731 5731 5730 5730 5729 5729 5728 5727 5727 5726 5726 5725 5724 5723 5722 5721 5720 5718
5709 5711 5712 5714 5715 5716 5717 5718 5719 5720 5721 5722 5723 5724 5725 5725 5726 5727 5727 5728 5728 5729 5729 5729 5730 5730 5730 5730 5731 5731 5731 5731 5731 5731 5732 5732 5732 5732 5732 5732 5732 5731 5731 5731 5731 5731 5731 5730 5730 5730 5730 5729 5729 5728 5727 5727 5727 5726 5725 5725 5724 5723 5722 5721 5720 5719 5718 5717 5716
5708 5710 5711 5713 5714 5715 5716 5717 5718 5719 5720 5721 5722 5722 5723 5724 5725 5725 5726 5727 5727 5727 5728 5728 5728 5729 5729 5729 5729 5729 5730 5730 5730 5730 5730 5730 5730 5730 5730 5730 5730 5729 5729 5729 5729 5729 5729 5728 5728 5728 5728 5727 5727 5726 5726 5725 5724 5724 5723 5722 5722 5721 5720 5719 5717 5716 5715 5714 5713
5707 5709 5711 5712 5713 5714 5715 5716 5717 5718 5719 5720 5720 5721 5722 5723 5723 5724 5725 5725 5726 5726 5727 5727 5727 5727 5727 5728 5728 5728 5728 5728 5728 5728 5728 5728 5728 5728 5728 5728 5728 5728 5727 5727 5727 5727 5727 5727 5726 5726 5726 5725 5725 5724 5723 5722 5722 5721 5721 5720 5719 5718 5717 5716 5715 5713 5712 5711 5710
5707 5708 5709 5711 5712 5713 5714 5715 5716 5717 5717 5718 5719 5720 5721 5721 5722 5722 5723 5724 5724 5725 5725 5725 5726 5726 5726 5726 5726 5726 5726 5727 5727 5727 5727 5727 5727 5727 5727 5726 5726 5726 5726 5726 5726 5725 5725 5725 5724 5724 5723 5723 5722 5722 5721 5720 5719 5719 5718 5717 5717 5715 5714 5713 5712 5711 5710 5709 5708
5706 5707 5708 5710 5711 5712 5712 5713 5714 5715 5716 5717 5718 5718 5719 5720 5720 5721 5721 5722 5722 5723 5723 5723 5724 5724 5724 5724 5724 5725 5725 5725 5725 5725 5725 5725 5725 5725 5725 5725 5724 5724 5724 5724 5724 5723 5723 5723 5722 5722 5721 5720 5720 5719 5718 5718 5717 5717 5716 5715 5714 5713 5712 5710 5709 5708 5707 5706 5705
5705 5706 5707 5709 5710 5711 5712 5712 5713 5714 5715 5716 5716 5717 5718 5718 5719 5719 5720 5720 5720 5721 5721 5722 5722 5722 5722 5722 5723 5723 5723 5723 5723 5723 5723 5723 5723 5723 5723 5723 5722 5722 5722 5722 5722 5722 5721 5721 5720 5719 5719 5718 5717 5717 5716 5716 5715 5714 5713 5712 5711 5710 5709 5708 5707 5706 5705 5703 5702
5704 5705 5707 5707 5708 5709 5710 5711 5712 5713 5713 5714 5715 5716 5716 5717 5717 5717 5718 5718 5719 5719 5720 5720 5720 5721 5721 5721 5721 5722 5722 5722 5722 5722 5722 5721 5721 5721 5721 5721 5721 5721 5720 5720 5720 5719 5719 5718 5718 5717 5717 5716 5715 5715 5714 5713 5713 5712 5711 5710 5709 5708 5707 5706 5704 5703 5702 5701 5700
5703 5704 5705 5706 5707 5708 5709 5710 5711 5711 5712 5713 5713 5714 5715 5715 5716 5716 5717 5717 5717 5718 5718 5718 5719 5719 5719 5719 5720 5720 5720 5720 5720 5720 5720 5719 5719 5719 5719 5719 5719 5718 5718 5718 5717 5717 5717 5716 5715 5715 5714 5713 5713 5712 5712 5712 5711 5710 5709 5708 5707 5706 5705 5703 5702 5701 5700 5698 5697
5702 5703 5704 5705 5706 5707 5708 5708 5709 5710 5711 5711 5712 5712 5713 5713 5714 5714 5715 5715 5716 5716 5717 5717 5717 5717 5717 5718 5718 5718 5718 5718 5718 5718 5717 5717 5717 5717 5717 5717 5717 5716 5716 5716 5715 5715 5714 5714 5713 5712 5712 5711 5711 5710 5710 5709 5708 5708 5707 5706 5705 5703 5702 5701 5700 5699 5697 5696 5695
5701 5702 5703 5704 5705 5706 5706 5707 5708 5708 5709 5710 5710 5711 5712 5712 5712 5713 5713 5714 5714 5715 5715 5715 5716 5716 5716 5716 5716 5716 5716 5716 5716 5716 5716 5716 5715 5715 5715 5715 5715 5714 5714 5714 5713 5713 5712 5712 5711 5710 5710 5709 5708 5708 5707 5707 5706 5705 5704 5703 5702 5701 5700 5699 5697 5696 5695 5693 5692
5700 5701 5702 5702 5703 5704 5705 5706 5706 5707 5708 5708 5709 5710 5710 5711 5711 5712 5712 5712 5713 5713 5713 5714 5714 5714 5714 5714 5714 5714 5714 5714 5714 5714 5714 5714 5713 5713 5713 5713 5712 5712 5712 5712 5712 5711 5710 5710 5709 5708 5707 5707 5707 5706 5705 5704 5704 5703 5702 5701 5700 5698 5697 5696 5695 5693 5692 5691 5689
5699 5700 5700 5701 5702 5703 5703 5704 5705 5706 5706 5707 5707 5708 5709 5709 5710 5710 5711 5711 5712 5712 5712 5712 5712 5712 5712 5712 5713 5713 5713 5713 5713 5712 5712 5712 5712 5712 5711 5711 5711 5711 5710 5710 5709 5709 5708 5707 5707 5706 5706 5705 5704 5703 5703 5702 5701 5700 5699 5698 5697 5696 5695 5693 5692 5691 5689 5688 5687
5697 5698 5699 5700 5701 5702 5702 5703 5704 5704 5705 5706 5707 5707 5707 5708 5708 5709 5709 5710 5710 5710 5711 5711 5711 5711 5711 5711 5711 5711 5711 5711 5711 5711 5711 5710 5710 5710 5709 5709 5709 5709 5708 5708 5707 5707 5706 5705 5705 5704 5703 5703 5702 5701 5700 5699 5698 5697 5696 5695 5694 5693 5692 5691 5690 5688 5687 5686 5684
5696 5697 5698 5699 5700 5701 5701 5702 5703 5703 5704 5705 5705 5706 5707 5707 5707 5708 5708 5709 5709 5709 5709 5709 5709 5709 5709 5710 5710 5710 5710 5709 5709 5709 5709 5709 5708 5708 5708 5707 5707 5707 5707 5706 5705 5705 5704 5703 5703 5702 5701 5701 5700 5699 5698 5697 5696 5695 5694 5693 5692 5691 5690 5688 5687 5686 5684 5683 5682
5696 5697 5697 5698 5699 5700 5701 5701 5702 5702 5703 5704 5704 5705 5705 5706 5706 5707 5707 5707 5708 5708 5708 5708 5708 5708 5708 5708 5708 5708 5708 5708 5707 5707 5707 5707 5707 5707 5706 5706 5706 5705 5704 5704 5703 5702 5702 5701 5701 5700 5699 5698 5697 5697 5696 5695 5694 5693 5692 5691 5689 5688 5687 5686 5685 5683 5682 5681 5679
5695 5696 5697 5697 5698 5699 5700 5700 5701 5702 5702 5703 5703 5704 5704 5705 5705 5706 5706 5706 5707 5707 5707 5707 5707 5707 5707 5707 5707 5707 5707 5706 5706 5706 5706 5705 5705 5705 5704 5704 5704 5703 5702 5702 5701 5701 5700 5699 5698 5698 5697 5696 5695 5694 5693 5692 5692 5691 5689 5688 5687 5686 5685 5683 5682 5681 5680 5678 5677
5694 5695 5696 5697 5697 5698 5699 5700 5700 5701 5701 5702 5702 5703 5703 5704 5704 5705 5705 5705 5705 5705 5705 5705 5705 5705 5705 5705 5705 5705 5705 5705 5704 5704 5704 5703 5703 5703 5702 5702 5702 5701 5700 5700 5699 5699 5698 5697 5697 5696 5695 5694 5693 5692 5691 5690 5689 5688 5687 5686 5685 5684 5682 5681 5680 5678 5677 5676 5674
5693 5694 5695 5696 5697 5697 5698 5699 5699 5700 5700 5701 5702 5702 5702 5703 5703 5703 5703 5704 5704 5704 5704 5704 5704 5704 5704 5704 5703 5703 5703 5703 5702 5702 5702 5702 5702 5701 5701 5700 5700 5699 5698 5698 5697 5697 5696 5696 5695 5694 5693 5692 5691 5690 5689 5688 5687 5686 5685 5684 5682 5681 5680 5678 5677 5676 5674 5673 5671
5692 5693 5694 5695 5696 5697 5697 5698 5698 5699 5699 5700 5701 5701 5701 5702 5702 5702 5702 5702 5702 5702 5702 5702 5702 5702 5702 5702 5702 5702 5701 5701 5701 5700 5700 5700 5700 5699 5699 5698 5698 5697 5697 5696 5696 5695 5694 5694 5693 5692 5691 5690 5689 5688 5687 5686 5685 5684 5682 5681 5680 5678 5677 5676 5674 5673 5672 5670 5668
5692 5692 5693 5694 5695 5696 5696 5697 5697 5698 5698 5699 5699 5700 5700 5700 5700 5701 5701 5701 5701 5701 5701 5701 5701 5701 5701 5700 5700 5700 5700 5699 5699 5699 5698 5698 5698 5697 5697 5697 5696 5696 5695 5694 5694 5693 5692 5692 5691 5690 5689 5688 5687 5686 5685 5684 5682 5681 5680 5678 5677 5676 5675 5673 5672 5670 5668 5667 5665
5691 5692 5692 5693 5694 5695 5695 5696 5696 5697 5697 5698 5698 5698 5699 5699 5699 5699 5699 5699 5699 5699 5699 5699 5699 5699 5699 5698 5698 5698 5698 5697 5697 5697 5697 5697 5696 5696 5695 5695 5694 5694 5693 5692 5692 5691 5691 5690 5689 5688 5687 5686 5685 5684 5682 5682 5680 5679 5677 5676 5675 5674 5672 5671 5669 5667 5666 5664 5662
5690 5691 5692 5692 5693 5694 5694 5695 5695 5696 5696 5697 5697 5697 5697 5697 5698 5698 5698 5698 5698 5697 5697 5697 5697 5697 5697 5697 5697 5697 5696 5696 5696 5696 5695 5695 5695 5694 5694 5693 5693 5692 5692 5691 5690 5689 5688 5687 5687 5686 5684 5683 5682 5681 5680 5679 5677 5677 5676 5674 5673 5671 5670 5668 5666 5665 5663 5662 5660
5690 5690 5691 5692 5692 5692 5693 5693 5694 5694 5695 5695 5695 5696 5696 5696 5696 5696 5696 5696 5696 5696 5696 5696 5696 5695 5695 5695 5695 5695 5695 5694 5694 5694 5694 5693 5693 5692 5692 5692 5691 5690 5689 5688 5688 5687 5686 5685 5684 5683 5682 5681 5680 5679 5678 5677 5676 5674 5673 5671 5670 5668 5667 5666 5664 5662 5661 5659 5657
5689 5689 5690 5690 5691 5691 5692 5692 5692 5693 5693 5693 5694 5694 5694 5694 5694 5694 5694 5694 5694 5694 5694 5694 5694 5694 5694 5694 5693 5693 5693 5693 5692 5692 5692 5692 5691 5691 5690 5689 5689 5688 5687 5686 5686 5685 5684 5683 5682 5681 5680 5679 5678 5677 5676 5675 5674 5672 5671 5669 5668 5667 5665 5663 5662 5660 5658 5657 5655
5687 5688 5688 5689 5689 5690 5690 5691 5691 5691 5692 5692 5692 5692 5692 5692 5693 5693 5692 5692 5692 5692 5693 5693 5692 5692 5692 5692 5692 5692 5691 5691 5691 5690 5690 5689 5689 5688 5688 5687 5687 5686 5685 5684 5683 5683 5682 5681 5680 5679 5678 5677 5676 5675 5674 5673 5672 5670 5669 5668 5666 5665 5663 5662 5660 5658 5657 5655 5653
5686 5687 5687 5688 5688 5688 5689 5689 5689 5690 5690 5690 5690 5691 5691 5691 5691 5691 5691 5691 5691 5691 5691 5691 5691 5691 5690 5690 5690 5690 5689 5689 5689 5688 5688 5687 5687 5686 5686 5685 5684 5684 5683 5682 5682 5681 5680 5679 5678 5677 5677 5676 5674 5673 5672 5671 5670 5669 5667 5666 5664 5663 5661 5660 5658 5657 5655 5653 5651
5685 5685 5686 5686 5687 5687 5687 5687 5688 5688 5688 5688 5689 5689 5689 5689 5689 5689 5689 5689 5689 5689 5689 5689 5689 5689 5688 5688 5688 5688 5687 5687 5687 5686 5686 5685 5685 5684 5683 5683 5682 5682 5681 5681 5680 5679 5678 5678 5677 5676 5675 5674 5673 5672 5671 5669 5668 5667 5666 5664 5663 5661 5660 5658 5656 5655 5653 5651 5649
5683 5684 5684 5685 5685 5685 5686 5686 5686 5687 5687 5687 5687 5687 5687 5687 5687 5687 5688 5688 5687 5687 5687 5687 5687 5687 5687 5687 5686 5686 5686 5685 5685 5684 5684 5683 5682 5682 5682 5681 5681 5680 5679 5679 5678 5677 5677 5676 5675 5674 5673 5672 5671 5670 5669 5668 5667 5665 5664 5662 5661 5659 5658 5656 5654 5653 5651 5649 5647